WetterOnline ( http://www.wetteronline.de )

Wetter aktuell Steinbach am Wald

Aktuelles Wetter: Neuhaus (851m)

6-stündlich | Neueste Meldungen
Ortszeit Temperatur Wetter
Do, 21.03. 13:00 10.6° C leicht bewölkt
Do, 21.03. 7:00 2.0° C wolkenlos
Do, 21.03. 1:00 1.9° C bewölkt
Mi, 20.03. 19:00 3.2° C wolkig
Mi, 20.03. 13:00 6.0° C leicht bewölkt
Mi, 20.03. 7:00 -1.7° C wolkenlos
Mi, 20.03. 1:00 -2.4° C wolkenlos
Di, 19.03. 19:00 0.6° C bewölkt
Ortszeit Temperatur Wetter
Do, 21.03. 14:30 11.8° C wolkenlos
Do, 21.03. 14:20 11.8° C wolkenlos
Do, 21.03. 14:10 11.8° C wolkenlos
Do, 21.03. 14:00 11.5° C fast wolkenlos
Do, 21.03. 13:50 11.5° C fast wolkenlos
Do, 21.03. 13:40 11.6° C leicht bewölkt
Do, 21.03. 13:30 11.2° C wolkig
Do, 21.03. 13:00 10.6° C leicht bewölkt
Do, 21.03. 12:30 10.5° C wolkenlos
Do, 21.03. 12:00 9.7° C wolkenlos
Do, 21.03. 11:30 9.1° C leicht bewölkt
Ortszeit Relative Feuchte Sichtweite
Do, 21.03. 13:00 50% 45 km
Do, 21.03. 7:00 85% 30 km
Do, 21.03. 1:00 68% 45 km
Mi, 20.03. 19:00 59% 50 km
Mi, 20.03. 13:00 41% 55 km
Mi, 20.03. 7:00 73% 40 km
Mi, 20.03. 1:00 72% 45 km
Di, 19.03. 19:00 65% 45 km
Ortszeit Relative Feuchte Sichtweite
Do, 21.03. 14:30 48% 40 km
Do, 21.03. 14:20 48% -
Do, 21.03. 14:10 47% -
Do, 21.03. 14:00 47% 65 km
Do, 21.03. 13:50 47% -
Do, 21.03. 13:40 47% -
Do, 21.03. 13:30 48% 50 km
Do, 21.03. 13:00 50% 45 km
Do, 21.03. 12:30 50% 50 km
Do, 21.03. 12:00 52% 35 km
Do, 21.03. 11:30 53% 50 km
Ortszeit Niederschlagsmenge Niederschlagsart
Do, 21.03. 13:00 0.0 l/m2 in 6 Std. -
Do, 21.03. 7:00 0.0 l/m2 in 12 Std. -
Do, 21.03. 1:00 0.0 l/m2 in 6 Std. -
Mi, 20.03. 19:00 0.0 l/m2 in 12 Std. -
Mi, 20.03. 13:00 0.0 l/m2 in 6 Std. -
Mi, 20.03. 7:00 0.0 l/m2 in 12 Std. -
Mi, 20.03. 1:00 0.0 l/m2 in 6 Std. -
Di, 19.03. 19:00 0.0 l/m2 in 12 Std. -
Ortszeit Niederschlagsmenge Niederschlagsart
Do, 21.03. 14:30 0.0 l/m2 in 1 Std. -
Do, 21.03. 14:20 keine Meldung -
Do, 21.03. 14:10 keine Meldung -
Do, 21.03. 14:00 0.0 l/m2 in 1 Std. -
Do, 21.03. 13:50 keine Meldung -
Do, 21.03. 13:40 keine Meldung -
Do, 21.03. 13:30 0.0 l/m2 in 1 Std. -
Do, 21.03. 13:00 0.0 l/m2 in 1 Std. -
Do, 21.03. 12:30 0.0 l/m2 in 1 Std. -
Do, 21.03. 12:00 0.0 l/m2 in 1 Std. -
Do, 21.03. 11:30 0.0 l/m2 in 1 Std. -
Ortszeit Stärke Spitze Richtung
km/h Bft. km/h Grad Sektor
Do, 21.03. 13:00 7 2 22 100° O
Do, 21.03. 7:00 4 1 11 60° NO
Do, 21.03. 1:00 7 2 14 270° W
Mi, 20.03. 19:00 7 2 22 280° W
Mi, 20.03. 13:00 6 1 24 340° N
Mi, 20.03. 7:00 9 2 15 240° SW
Mi, 20.03. 1:00 6 1 11 320° NW
Di, 19.03. 19:00 7 2 11 10° N
Ortszeit Stärke Spitze Richtung
km/h Bft. km/h Grad Sektor
Do, 21.03. 14:30 9 2 19 70° O
Do, 21.03. 14:20 9 2 - 70° O
Do, 21.03. 14:10 11 2 - 60° NO
Do, 21.03. 14:00 7 2 18 50° NO
Do, 21.03. 13:50 7 2 - 50° NO
Do, 21.03. 13:40 6 1 - 40° NO
Do, 21.03. 13:30 9 2 17 140° SO
Do, 21.03. 13:00 7 2 22 100° O
Do, 21.03. 12:30 7 2 22 100° O
Do, 21.03. 12:00 6 1 15 80° O
Do, 21.03. 11:30 6 1 13 20° N
Ortszeit Untergrenze Bedeckung Gattung
total tief tief mittel hoch
Do, 21.03. 13:00 10500 m 7/8 0/8 - - -
Do, 21.03. 7:00 - 0/8 0/8 - - -
Do, 21.03. 1:00 6600 m 8/8 7/8 - - -
Mi, 20.03. 19:00 9000 m 7/8 0/8 - - -
Mi, 20.03. 13:00 6900 m 2/8 2/8 - - -
Mi, 20.03. 7:00 - 0/8 0/8 - - -
Mi, 20.03. 1:00 - 0/8 0/8 - - -
Di, 19.03. 19:00 1290 m 7/8 7/8 - - -
Ortszeit Bedeckungsgrad in Achtel und Wolkenuntergrenze
Do, 21.03. 14:30 keine Wolken
Do, 21.03. 14:20 keine Wolken
Do, 21.03. 14:10 keine Wolken
Do, 21.03. 14:00 2(10500m)
Do, 21.03. 13:50 2(10500m)
Do, 21.03. 13:40 5(10500m)
Do, 21.03. 13:30 7(10500m)
Do, 21.03. 13:00 7(10500m)
Do, 21.03. 12:30 4(10500m)
Do, 21.03. 12:00 keine Wolken
Do, 21.03. 11:30 4(10500m)
Ortszeit Stationsdruck (hPa) Tendenz (hPa in 3 Std.)
Do, 21.03. 13:00 934 - 0,4
Do, 21.03. 7:00 934 + 0,2
Do, 21.03. 1:00 934 + 0,4
Mi, 20.03. 19:00 933 + 0,4
Mi, 20.03. 13:00 933 + 0,5
Mi, 20.03. 7:00 931 + 0,8
Mi, 20.03. 1:00 930 + 0,9
Di, 19.03. 19:00 928 + 1,4
Ortszeit Stationsdruck (hPa) Tendenz (hPa in 3 Std.)
Do, 21.03. 14:30 933 - 1,1
Do, 21.03. 14:20 933 keine Meldung
Do, 21.03. 14:10 933 keine Meldung
Do, 21.03. 14:00 933 - 0,9
Do, 21.03. 13:50 933 keine Meldung
Do, 21.03. 13:40 933 keine Meldung
Do, 21.03. 13:30 934 - 0,7
Do, 21.03. 13:00 934 - 0,4
Do, 21.03. 12:30 934 - 0,2
Do, 21.03. 12:00 934 + 0,1
Do, 21.03. 11:30 934 + 0,1
Ortszeit Schneehöhe (cm)
Do, 21.03. 13:00 25
Do, 21.03. 7:00 27
Do, 21.03. 1:00 27
Mi, 20.03. 19:00 27
Mi, 20.03. 13:00 28
Mi, 20.03. 7:00 28
Mi, 20.03. 1:00 28
Di, 19.03. 19:00 28
Ortszeit Schneehöhe (cm)
Do, 21.03. 14:30 24
Do, 21.03. 14:20 24
Do, 21.03. 14:10 25
Do, 21.03. 14:00 25
Do, 21.03. 13:50 25
Do, 21.03. 13:40 25
Do, 21.03. 13:30 25
Do, 21.03. 13:00 25
Do, 21.03. 12:30 25
Do, 21.03. 12:00 26
Do, 21.03. 11:30 26
Link zu dieser Seite / Seite empfehlen

Das Wetter in ...